[[{"header":{"parameterUnit":"m.s-1","parameterCategory":1,"la1":30.2991,"la2":30.254,"lo1":-89.0895,"lo2":-89.0444,"dy":0.0017,"dx":0.0017,"nx":28,"ny":28,"refTime":"2024-06-19T03:00:00:Z","depth":0,"parameterNumber":2,"parameterNumberName":"U-component_of_WINDS"},"data":[0,0,0,0,0,0,0,0,0,0,0,0,0,0,0,0,0,0,0,0,0,0,0,0,0,0,0,0,0,0,0,0,0,0,0,0,0,0,0,0,0,0,0,0,0,0,0,0,0,0,0,0,0,0,0,0,0,0,-6.7674,-6.7673,0,-6.7602,-6.7601,-6.7601,-6.7316,-6.7309,-6.7302,-6.7296,-6.7231,-6.7236,-6.724,0,0,0,0,0,0,0,0,0,0,0,0,0,-6.7571,-6.7575,-6.7674,-6.7673,-6.7672,-6.7602,-6.7601,-6.76,-6.7317,-6.7309,-6.7301,-6.7293,-6.723,-6.7235,-6.7241,0,0,0,0,0,0,0,0,0,0,0,0,0,-6.757,-6.7576,-6.7674,-6.7522,-6.7507,-6.7603,-6.7601,-6.76,-6.7318,-6.7308,-6.7299,-6.7289,-6.7228,-6.7235,-6.7241,-6.748,0,0,-6.7262,-6.7264,0,0,0,0,0,0,0,0,-6.757,-6.7574,-6.7545,-6.7532,-6.7517,-6.7457,-6.7541,-6.756,-6.7321,-6.7391,-6.7296,-6.7285,-6.7315,-6.7314,-6.7323,-6.7477,-6.7474,-6.7262,-6.7266,-6.7269,-6.7271,0,0,0,0,0,0,0,-6.7571,-6.7576,-6.7646,-6.7545,-6.7528,-6.7459,-6.7448,-6.7543,-6.741,-6.7384,-6.7363,-6.7358,-6.7306,-6.7317,-6.7319,-6.7473,-6.7262,-6.7268,-6.7272,-6.7274,-6.7818,-6.7828,0,0,0,0,0,0,-6.7592,-6.7578,-6.7648,-6.7643,-6.7519,-6.7469,-6.7457,-6.7487,-6.7408,-6.7386,-6.7366,-6.7345,-6.731,-6.7312,-6.7316,-6.7588,-6.7269,-6.7275,-6.7279,-6.7807,-6.782,-6.7831,0,0,0,0,0,0,-6.759,-6.76,-6.7651,-6.7605,-6.7606,-6.7481,-6.7517,-6.749,-6.7501,-6.7394,-6.737,-6.7402,-6.7303,-6.7306,-6.744,-6.7582,-6.7278,-6.7284,-6.7795,-6.7811,-6.7826,-6.8136,0,0,0,0,0,0,-6.7589,-6.7602,-6.769,-6.7609,-6.7609,-6.7776,-6.7526,-6.7496,-6.7512,-6.7484,-6.7421,-6.7402,-6.7295,-6.7432,-6.7447,-6.7585,-6.7289,-6.7782,-6.7802,-6.7821,-6.8113,-6.816,-6.8201,0,0,0,0,0,-6.7586,-6.7783,-6.7696,-6.7706,-6.7716,-6.7784,-6.7785,-6.7656,-6.7525,-6.7613,-6.7544,-6.7404,-6.7564,-6.7448,-6.7462,-6.7605,-6.7772,-6.7796,-6.7819,-6.8093,-6.8151,-6.82,0,0,0,0,0,0,-6.7887,-6.7769,-6.7672,-6.7847,-6.7828,-6.7736,-6.7843,-6.7722,-6.7741,-6.7714,-6.7556,-6.7544,-6.7701,-6.7666,-6.7539,-6.7831,-6.7644,-6.7672,-6.7847,-6.7902,-6.7946,-6.795,-6.7295,0,0,0,0,0,-6.7974,-6.8036,-6.793,-6.8096,-6.809,-6.797,-6.7994,-6.7896,-6.787,-6.7862,-6.7802,-6.7785,-6.783,-6.7865,-6.7901,-6.8107,-6.8089,-6.8212,-6.8256,-6.8293,-6.8319,-6.8423,-6.8476,-6.7909,-6.7908,-6.7908,0,0,-6.8154,-6.8097,-6.8146,-6.8155,-6.8127,-6.8197,-6.7964,-6.8049,-6.8099,-6.7875,-6.7996,-6.7953,-6.7923,-6.8093,-6.8165,-6.8069,-6.8472,-6.8323,-6.8354,-6.8359,-6.8453,-6.8507,-6.8555,-6.7925,-6.7922,-6.7919,0,0,-6.8516,-6.848,-6.8612,-6.8589,-6.855,-6.8467,-6.85,-6.8426,-6.8387,-6.8506,-6.8339,-6.8398,-6.8481,-6.8466,-6.847,-6.8826,-6.8697,-6.8843,-6.9074,-6.9178,-6.9222,-6.9261,-6.9387,-6.9434,-6.8868,-6.8869,-6.887,0,-6.8746,-6.8841,-6.8696,-6.879,-6.8798,-6.8596,-6.8729,-6.8715,-6.8692,-6.8704,-6.8596,-6.8694,-6.866,-6.8823,-6.8909,-6.892,-6.8952,-6.8848,-6.9227,-6.9265,-6.9299,-6.9417,-6.9465,-6.8887,-6.8885,-6.8883,-6.8881,0,-6.9124,-6.9193,-6.9305,-6.9283,-6.9304,-6.9419,-6.9293,-6.9332,-6.9233,-6.9163,-6.9287,-6.9238,-6.926,-6.9292,-6.9198,-6.9442,-6.9383,-6.9255,-6.9064,-6.9373,-6.9481,-6.9526,-6.8912,-6.8906,-6.8901,-6.8896,0,0,-6.9675,-6.9569,-6.9613,-6.9599,-6.954,-6.9592,-6.9698,-6.9715,-6.9752,-6.9744,-6.9828,-6.9902,-6.9781,-6.9785,-6.9687,-6.9779,-7.0062,-6.9637,-6.9634,-6.9717,-7.0327,-7.0424,-7.0479,-6.9977,-6.9985,-6.9991,-7.0329,0,-7.0018,-7.0187,-7.006,-7.0253,-7.0314,-7.0122,-7.0213,-7.0189,-7.0127,-7.0172,-7.0104,-7.0158,-6.9995,-6.9996,-7.0078,-7.0011,-7.0183,-6.9985,-7.0055,-7.0059,-7.0066,-7.0535,-7.0637,-7.0959,-7.0371,-7.0378,-7.0383,0,-7.0442,-7.0447,-7.0645,-7.0571,-7.0592,-7.0676,-7.0681,-7.0727,-7.0695,-7.0643,-7.0648,-7.0526,-7.0625,-7.0439,-7.0574,-7.0442,-7.0464,-7.0435,-7.0444,-7.0445,-7.0239,-7.0547,-7.1058,-7.1106,-7.0449,-7.0443,-7.0439,0,-7.0821,-7.0879,-7.1003,-7.0998,-7.0916,-7.0979,-7.0948,-7.0906,-7.0925,-7.0932,-7.0942,-7.0963,-7.0974,-7.0993,-7.088,-7.0755,-7.103,-7.0834,-7.099,-7.0994,-7.1056,-7.1053,-7.1576,-7.1074,-7.1073,-7.1072,-7.1071,0,-7.1217,-7.1346,-7.1171,-7.1249,-7.1387,-7.124,-7.1382,-7.1332,-7.1296,-7.1361,-7.1199,-7.1264,-7.1111,-7.1162,-7.1075,-7.1199,-7.1206,-7.1168,-7.1143,-7.1181,-7.1186,-7.1192,-7.1167,-7.1084,-7.1082,-7.1079,-7.1077,0,-7.1664,-7.1552,-7.1675,-7.1586,-7.1567,-7.1673,-7.1597,-7.1666,-7.1592,-7.1676,-7.1688,-7.1574,-7.1624,-7.1513,-7.155,-7.1491,-7.1668,-7.1608,-7.1677,-7.1659,-7.1821,-7.1807,-7.2365,-7.243,-7.1888,-7.1893,-7.1898,0,-7.1923,-7.2016,-7.1935,-7.1965,-7.1942,-7.1994,-7.201,-7.1871,-7.1896,-7.1866,-7.1939,-7.1975,-7.1996,-7.2087,-7.2009,-7.2036,-7.1975,-7.2168,-7.1978,-7.2013,-7.1976,-7.1971,-7.1979,-7.2208,-7.2214,-7.222,-7.2224,0,-7.2394,-7.2333,-7.2362,-7.2372,-7.2396,-7.2399,-7.239,-7.2425,-7.2275,-7.2312,-7.2359,-7.2376,-7.2411,-7.245,-7.2458,-7.2429,-7.2304,-7.2285,-7.2322,-7.2361,-7.2397,-7.2378,-7.1783,-7.2272,-7.2267,-7.2264,-7.2261,-7.2259,-7.2753,-7.2826,-7.2779,-7.2817,-7.2794,-7.279,-7.2848,-7.2781,-7.2817,-7.2831,-7.2748,-7.2814,-7.278,-7.2777,-7.2762,-7.2813,-7.2726,-7.278,-7.2794,-7.2809,-7.2834,-7.239,-7.2814,-7.2813,-7.2811,-7.281,-7.2809,0,-7.3214,-7.3173,-7.3209,-7.3199,-7.323,-7.3105,-7.3088,-7.3122,-7.3181,-7.3158,-7.3181,-7.3236,-7.3272,-7.3197,-7.3222,-7.3278,-7.3221,-7.3289,-7.3283,-7.3278,-7.2912,-7.2876,-7.3334,-7.3334,-7.3334,-7.3334,-7.3334,-7.3334,-7.3457,-7.3573,-7.3507,-7.3611,-7.3571,-7.3631,-7.3632,-7.3627,-7.3607,-7.3674,-7.3702,-7.3651,-7.3608,-7.3628,-7.3656,-7.3633,-7.365,-7.3738,-7.3696,-7.3355,-7.3304,-7.3255,-7.322,-7.3743,-7.3744,-7.4056,-7.4059,-7.4062]},{"header":{"parameterUnit":"m.s-1","parameterCategory":1,"la1":30.2991,"la2":30.254,"lo1":-89.0895,"lo2":-89.0444,"dy":0.0017,"dx":0.0017,"nx":28,"ny":28,"refTime":"2024-06-19T03:00:00:Z","depth":0,"parameterNumber":3,"parameterNumberName":"V-component_of_WINDS"},"data":[0,0,0,0,0,0,0,0,0,0,0,0,0,0,0,0,0,0,0,0,0,0,0,0,0,0,0,0,0,0,0,0,0,0,0,0,0,0,0,0,0,0,0,0,0,0,0,0,0,0,0,0,0,0,0,0,0,0,-0.2227,-0.2228,0,-0.2279,-0.2279,-0.228,-0.235,-0.2352,-0.2353,-0.2354,-0.2404,-0.2404,-0.2405,0,0,0,0,0,0,0,0,0,0,0,0,0,-0.2185,-0.2186,-0.2227,-0.2228,-0.2228,-0.2279,-0.2279,-0.228,-0.235,-0.2352,-0.2353,-0.2354,-0.2404,-0.2404,-0.2405,0,0,0,0,0,0,0,0,0,0,0,0,0,-0.2217,-0.2186,-0.2227,-0.2269,-0.2274,-0.2279,-0.2279,-0.228,-0.235,-0.2352,-0.2353,-0.2355,-0.2404,-0.2404,-0.2405,-0.2371,0,0,-0.2406,-0.2406,0,0,0,0,0,0,0,0,-0.2215,-0.2218,-0.2263,-0.2267,-0.2271,-0.231,-0.2283,-0.2311,-0.2349,-0.2321,-0.2354,-0.2356,-0.2371,-0.2374,-0.238,-0.2373,-0.2375,-0.2406,-0.2406,-0.2406,-0.2406,0,0,0,0,0,0,0,-0.2213,-0.2216,-0.2247,-0.2263,-0.2268,-0.2285,-0.2291,-0.2289,-0.2335,-0.2324,-0.2329,-0.2334,-0.2374,-0.238,-0.2382,-0.2376,-0.2406,-0.2406,-0.2406,-0.2406,-0.2342,-0.234,0,0,0,0,0,0,-0.2205,-0.2214,-0.2246,-0.2249,-0.2247,-0.2284,-0.2291,-0.2296,-0.2336,-0.2343,-0.2332,-0.2337,-0.2378,-0.2381,-0.2384,-0.2345,-0.2406,-0.2406,-0.2407,-0.2344,-0.2342,-0.234,0,0,0,0,0,0,-0.2203,-0.2207,-0.2244,-0.2233,-0.2239,-0.2283,-0.2287,-0.2296,-0.2302,-0.2342,-0.2351,-0.233,-0.238,-0.2383,-0.2373,-0.2348,-0.2407,-0.2407,-0.2346,-0.2343,-0.2341,-0.2269,0,0,0,0,0,0,-0.2202,-0.2206,-0.2194,-0.2232,-0.2239,-0.2233,-0.2286,-0.2296,-0.2302,-0.2309,-0.2342,-0.2349,-0.2381,-0.2372,-0.2374,-0.235,-0.2407,-0.2349,-0.2345,-0.2342,-0.2273,-0.2264,-0.2255,0,0,0,0,0,-0.22,-0.2172,-0.2194,-0.2197,-0.2226,-0.2232,-0.2236,-0.2274,-0.23,-0.2288,-0.2314,-0.2348,-0.2351,-0.2371,-0.2373,-0.2348,-0.2351,-0.2346,-0.2342,-0.2278,-0.2266,-0.2256,0,0,0,0,0,0,-0.2129,-0.2178,-0.2202,-0.2186,-0.2204,-0.2244,-0.223,-0.226,-0.2271,-0.2276,-0.2323,-0.2329,-0.2313,-0.233,-0.2352,-0.2317,-0.2356,-0.2352,-0.2306,-0.2295,-0.2286,-0.2282,-0.2407,0,0,0,0,0,-0.2112,-0.2113,-0.2155,-0.2137,-0.2145,-0.2185,-0.2189,-0.2217,-0.2238,-0.2246,-0.2271,-0.2289,-0.2294,-0.2296,-0.2303,-0.2277,-0.2284,-0.2261,-0.2252,-0.2244,-0.2239,-0.2225,-0.2215,-0.2326,-0.2326,-0.2326,0,0,-0.2076,-0.2102,-0.21,-0.2123,-0.2141,-0.2139,-0.2191,-0.2189,-0.2188,-0.2245,-0.2237,-0.2256,-0.2279,-0.226,-0.2253,-0.2274,-0.2211,-0.2239,-0.2232,-0.2232,-0.2219,-0.2209,-0.2199,-0.2323,-0.2323,-0.2324,0,0,-0.2008,-0.203,-0.2015,-0.2032,-0.2058,-0.2085,-0.2082,-0.2117,-0.2131,-0.2124,-0.2166,-0.2166,-0.2174,-0.2188,-0.2196,-0.2133,-0.2164,-0.2134,-0.2085,-0.2071,-0.2062,-0.2054,-0.203,-0.2021,-0.2129,-0.2129,-0.2129,0,-0.196,-0.1961,-0.2004,-0.1998,-0.2006,-0.2058,-0.2043,-0.2057,-0.2083,-0.2087,-0.211,-0.212,-0.2139,-0.2123,-0.2108,-0.2113,-0.2109,-0.2129,-0.206,-0.2053,-0.2046,-0.2023,-0.2014,-0.2125,-0.2126,-0.2126,-0.2126,0,-0.1898,-0.1899,-0.1884,-0.1908,-0.1915,-0.1904,-0.1944,-0.1945,-0.1972,-0.1996,-0.1987,-0.2012,-0.2024,-0.2023,-0.2049,-0.201,-0.2022,-0.2052,-0.2092,-0.2031,-0.201,-0.2002,-0.2119,-0.2121,-0.2122,-0.2123,0,0,-0.1787,-0.1836,-0.1829,-0.184,-0.1873,-0.1873,-0.1864,-0.1876,-0.1875,-0.1892,-0.1884,-0.1889,-0.1917,-0.1926,-0.1954,-0.1941,-0.1887,-0.1973,-0.1974,-0.1954,-0.1843,-0.1819,-0.1808,-0.1909,-0.1907,-0.1906,-0.184,0,-0.1725,-0.1713,-0.1751,-0.1729,-0.1728,-0.1778,-0.177,-0.1788,-0.181,-0.1812,-0.1837,-0.1838,-0.1876,-0.1881,-0.1871,-0.1896,-0.1865,-0.1901,-0.19,-0.1899,-0.189,-0.1797,-0.1772,-0.1709,-0.1833,-0.1831,-0.183,0,-0.165,-0.1663,-0.164,-0.1673,-0.1674,-0.1666,-0.1679,-0.1681,-0.1702,-0.1719,-0.1729,-0.1762,-0.1754,-0.1793,-0.1782,-0.1805,-0.1807,-0.1819,-0.1818,-0.1817,-0.186,-0.1792,-0.169,-0.1679,-0.1818,-0.1819,-0.182,0,-0.1568,-0.158,-0.1568,-0.1576,-0.1614,-0.1607,-0.1622,-0.1645,-0.1649,-0.1661,-0.1664,-0.1674,-0.1679,-0.1685,-0.172,-0.1745,-0.1703,-0.1746,-0.1715,-0.1714,-0.1702,-0.1702,-0.1596,-0.1707,-0.1707,-0.1707,-0.1707,0,-0.1493,-0.1477,-0.1531,-0.1523,-0.1506,-0.155,-0.1531,-0.1551,-0.1571,-0.1567,-0.1611,-0.1605,-0.1652,-0.1652,-0.1679,-0.1664,-0.1666,-0.1678,-0.1685,-0.1673,-0.1671,-0.1673,-0.1678,-0.1705,-0.1705,-0.1706,-0.1706,0,-0.1398,-0.1434,-0.1424,-0.146,-0.1469,-0.1454,-0.1485,-0.1479,-0.1504,-0.1498,-0.1499,-0.1538,-0.154,-0.1575,-0.1584,-0.1602,-0.1575,-0.1592,-0.1568,-0.1572,-0.1539,-0.154,-0.1429,-0.1415,-0.1536,-0.1535,-0.1534,0,-0.1347,-0.1335,-0.1371,-0.1371,-0.1385,-0.1385,-0.139,-0.1432,-0.1435,-0.1457,-0.1447,-0.1453,-0.1459,-0.1459,-0.1487,-0.1494,-0.151,-0.147,-0.1511,-0.1498,-0.1506,-0.1505,-0.1503,-0.146,-0.1459,-0.1458,-0.1457,0,-0.125,-0.1269,-0.1274,-0.1285,-0.129,-0.13,-0.1314,-0.1312,-0.1358,-0.1358,-0.1361,-0.1366,-0.1375,-0.1379,-0.1391,-0.1405,-0.1437,-0.1444,-0.1437,-0.1423,-0.1409,-0.1414,-0.1542,-0.1446,-0.1447,-0.1448,-0.1448,-0.1449,-0.1174,-0.1166,-0.1189,-0.1193,-0.1208,-0.1219,-0.1214,-0.1239,-0.1242,-0.1253,-0.1278,-0.1275,-0.1295,-0.1315,-0.1326,-0.1324,-0.1344,-0.1334,-0.1331,-0.1328,-0.132,-0.1411,-0.1327,-0.1327,-0.1328,-0.1328,-0.1328,0,-0.1078,-0.1096,-0.1099,-0.1116,-0.1119,-0.1151,-0.1167,-0.1167,-0.1165,-0.1181,-0.1187,-0.1188,-0.1192,-0.1221,-0.1227,-0.122,-0.1235,-0.122,-0.122,-0.1222,-0.1303,-0.1308,-0.1208,-0.1208,-0.1208,-0.1208,-0.1208,-0.1208,-0.1028,-0.1015,-0.1036,-0.1029,-0.1047,-0.1046,-0.1052,-0.1062,-0.1075,-0.1075,-0.1079,-0.1098,-0.1118,-0.1127,-0.1131,-0.114,-0.1139,-0.1118,-0.1131,-0.1205,-0.1217,-0.1228,-0.1232,-0.1119,-0.1118,-0.105,-0.105,-0.1049]}]]